Stündliche Wetter Wargielity

Heute, 27 Oktober, Dienstag

Zeit Temperatur Niederschläge Wind Luftdruck Luftfeuchtigkeit
00:00 +11°C° 0 mm 4 m/S 746 mmHg 89%
01:00 +11°C° 0 mm 4 m/S 746 mmHg 88%
02:00 +11°C° 0 mm 4 m/S 746 mmHg 88%
03:00 +11°C° 0 mm 4 m/S 746 mmHg 88%
04:00 +11°C° 0 mm 4 m/S 746 mmHg 88%
05:00 +11°C° 0 mm 4 m/S 746 mmHg 90%
06:00 +10°C° 0 mm 4 m/S 747 mmHg 92%
07:00 +10°C° 0 mm 3 m/S 747 mmHg 94%
08:00 +11°C° 0 mm 3 m/S 748 mmHg 89%
09:00 +11°C° 0 mm 3 m/S 748 mmHg 85%
10:00 +12°C° 0 mm 3 m/S 748 mmHg 80%
11:00 +12°C° 0 mm 3 m/S 749 mmHg 82%
12:00 +12°C° 0 mm 3 m/S 749 mmHg 83%
13:00 +12°C° 0 mm 3 m/S 749 mmHg 84%
14:00 +11°C° 0 mm 3 m/S 749 mmHg 86%
15:00 +11°C° 0 mm 3 m/S 749 mmHg 87%
16:00 +11°C° 0 mm 3 m/S 749 mmHg 88%
17:00 +11°C° 0 mm 3 m/S 749 mmHg 89%
18:00 +11°C° 0 mm 3 m/S 749 mmHg 90%
19:00 +10°C° 0 mm 3 m/S 750 mmHg 91%
20:00 +10°C° 0.5 mm 3 m/S 750 mmHg 90%
21:00 +10°C° 0.5 mm 3 m/S 750 mmHg 89%
22:00 +8°C° 0.5 mm 4 m/S 749 mmHg 87%
23:00 +9°C° 0.5 mm 3 m/S 750 mmHg 87%

Morgen, 28 Oktober, Mittwoch

Zeit Temperatur Niederschläge Wind Luftdruck Luftfeuchtigkeit
00:00 +9°C° 0.5 mm 3 m/S 750 mmHg 88%
01:00 +9°C° 0.5 mm 2 m/S 750 mmHg 88%
02:00 +8°C° 0 mm 3 m/S 750 mmHg 88%
03:00 +8°C° 0 mm 3 m/S 750 mmHg 89%
04:00 +7°C° 0 mm 3 m/S 750 mmHg 90%
05:00 +7°C° 0 mm 3 m/S 751 mmHg 89%
06:00 +7°C° 0 mm 3 m/S 751 mmHg 89%
07:00 +6°C° 0 mm 4 m/S 751 mmHg 89%
08:00 +7°C° 0 mm 4 m/S 751 mmHg 84%
09:00 +8°C° 0 mm 4 m/S 751 mmHg 79%
10:00 +9°C° 0 mm 5 m/S 751 mmHg 74%
11:00 +10°C° 0 mm 5 m/S 751 mmHg 71%
12:00 +12°C° 0 mm 5 m/S 751 mmHg 68%
13:00 +12°C° 0 mm 5 m/S 751 mmHg 65%
14:00 +10°C° 0 mm 5 m/S 751 mmHg 67%
15:00 +10°C° 0 mm 5 m/S 751 mmHg 69%
16:00 +10°C° 0 mm 4 m/S 751 mmHg 72%
17:00 +10°C° 0 mm 4 m/S 751 mmHg 74%
18:00 +10°C° 0 mm 4 m/S 751 mmHg 76%
19:00 +8°C° 0 mm 4 m/S 751 mmHg 78%
20:00 +8°C° 0 mm 4 m/S 751 mmHg 78%
21:00 +8°C° 0 mm 4 m/S 751 mmHg 79%
22:00 +8°C° 0 mm 4 m/S 751 mmHg 80%
23:00 +8°C° 0 mm 4 m/S 751 mmHg 81%

übermorgen, 29 Oktober, Donnerstag

Zeit Temperatur Niederschläge Wind Luftdruck Luftfeuchtigkeit
00:00 +8°C° 0 mm 4 m/S 751 mmHg 82%
01:00 +8°C° 0 mm 4 m/S 751 mmHg 83%
02:00 +7°C° 0 mm 4 m/S 751 mmHg 85%
03:00 +8°C° 0 mm 3 m/S 751 mmHg 87%
04:00 +7°C° 0 mm 3 m/S 751 mmHg 90%
05:00 +7°C° 0 mm 3 m/S 751 mmHg 90%
06:00 +7°C° 0 mm 3 m/S 751 mmHg 91%
07:00 +7°C° 0 mm 3 m/S 751 mmHg 92%
08:00 +7°C° 0 mm 4 m/S 751 mmHg 87%
09:00 +8°C° 0 mm 4 m/S 751 mmHg 83%
10:00 +10°C° 0 mm 4 m/S 751 mmHg 78%
11:00 +10°C° 0 mm 4 m/S 751 mmHg 78%
12:00 +11°C° 0 mm 4 m/S 751 mmHg 77%
13:00 +11°C° 0 mm 4 m/S 751 mmHg 76%
14:00 +10°C° 0 mm 4 m/S 751 mmHg 79%
15:00 +10°C° 0 mm 3 m/S 751 mmHg 82%
16:00 +9°C° 0 mm 3 m/S 751 mmHg 84%
17:00 +9°C° 0.1 mm 3 m/S 751 mmHg 86%
18:00 +9°C° 0.1 mm 3 m/S 751 mmHg 88%
19:00 +9°C° 0.1 mm 3 m/S 751 mmHg 89%
20:00 +9°C° 0.4 mm 3 m/S 751 mmHg 89%
21:00 +9°C° 0.4 mm 3 m/S 752 mmHg 88%
22:00 +9°C° 0.4 mm 3 m/S 752 mmHg 87%
23:00 +7°C° 0.1 mm 4 m/S 752 mmHg 88%

30 Oktober, Freitag

Zeit Temperatur Niederschläge Wind Luftdruck Luftfeuchtigkeit
00:00 +6°C° 0.1 mm 4 m/S 752 mmHg 89%
01:00 +6°C° 0.1 mm 4 m/S 752 mmHg 89%
02:00 +5°C° 0 mm 4 m/S 752 mmHg 90%
03:00 +5°C° 0 mm 4 m/S 753 mmHg 92%
04:00 +5°C° 0 mm 4 m/S 753 mmHg 93%
05:00 +5°C° 0 mm 4 m/S 753 mmHg 92%
06:00 +6°C° 0 mm 4 m/S 753 mmHg 92%
07:00 +6°C° 0 mm 4 m/S 753 mmHg 91%
08:00 +7°C° 0 mm 4 m/S 754 mmHg 88%
09:00 +8°C° 0 mm 4 m/S 754 mmHg 85%
10:00 +10°C° 0 mm 4 m/S 754 mmHg 82%
11:00 +10°C° 0.1 mm 4 m/S 754 mmHg 79%
12:00 +11°C° 0.1 mm 4 m/S 755 mmHg 75%
13:00 +11°C° 0.1 mm 4 m/S 755 mmHg 72%
14:00 +10°C° 0.1 mm 4 m/S 755 mmHg 77%
15:00 +9°C° 0.1 mm 3 m/S 755 mmHg 83%
16:00 +8°C° 0.1 mm 3 m/S 755 mmHg 88%
17:00 +8°C° 0 mm 3 m/S 756 mmHg 89%
18:00 +8°C° 0 mm 2 m/S 756 mmHg 91%
19:00 +7°C° 0 mm 2 m/S 756 mmHg 93%
20:00 +7°C° 0 mm 2 m/S 757 mmHg 93%
21:00 +7°C° 0 mm 2 m/S 757 mmHg 94%
22:00 +7°C° 0 mm 2 m/S 757 mmHg 94%
23:00 +6°C° 0 mm 2 m/S 757 mmHg 94%

31 Oktober, Samstag

Zeit Temperatur Niederschläge Wind Luftdruck Luftfeuchtigkeit
00:00 +6°C° 0 mm 2 m/S 758 mmHg 95%
01:00 +6°C° 0 mm 2 m/S 758 mmHg 95%
02:00 +6°C° 0 mm 2 m/S 758 mmHg 95%
03:00 +6°C° 0 mm 2 m/S 758 mmHg 95%
04:00 +6°C° 0 mm 2 m/S 758 mmHg 95%
05:00 +6°C° 0 mm 2 m/S 759 mmHg 94%
06:00 +6°C° 0 mm 2 m/S 759 mmHg 94%
07:00 +7°C° 0 mm 1 m/S 759 mmHg 93%
08:00 +8°C° 0 mm 1 m/S 759 mmHg 89%
09:00 +9°C° 0 mm 1 m/S 760 mmHg 84%
10:00 +10°C° 0 mm 1 m/S 760 mmHg 80%
11:00 +11°C° 0 mm 1 m/S 760 mmHg 77%
12:00 +11°C° 0 mm 1 m/S 760 mmHg 73%
13:00 +12°C° 0 mm 1 m/S 760 mmHg 70%
14:00 +11°C° 0 mm 1 m/S 760 mmHg 75%
15:00 +10°C° 0 mm 1 m/S 760 mmHg 79%
16:00 +9°C° 0 mm 1 m/S 760 mmHg 84%
17:00 +8°C° 0 mm 1 m/S 761 mmHg 86%
18:00 +7°C° 0 mm 2 m/S 761 mmHg 89%
19:00 +6°C° 0 mm 2 m/S 761 mmHg 91%
20:00 +6°C° 0 mm 2 m/S 761 mmHg 91%
21:00 +6°C° 0 mm 2 m/S 761 mmHg 91%
22:00 +6°C° 0 mm 2 m/S 761 mmHg 92%
23:00 +5°C° 0 mm 2 m/S 761 mmHg 92%

1 November, Sonntag

Zeit Temperatur Niederschläge Wind Luftdruck Luftfeuchtigkeit
00:00 +5°C° 0 mm 2 m/S 762 mmHg 92%
01:00 +5°C° 0 mm 2 m/S 762 mmHg 93%
02:00 +5°C° 0 mm 2 m/S 762 mmHg 93%
03:00 +3°C° 0 mm 3 m/S 761 mmHg 93%
04:00 +3°C° 0 mm 3 m/S 761 mmHg 94%
05:00 +3°C° 0 mm 3 m/S 762 mmHg 94%
06:00 +3°C° 0 mm 3 m/S 762 mmHg 93%
07:00 +3°C° 0 mm 3 m/S 762 mmHg 93%
08:00 +4°C° 0 mm 3 m/S 762 mmHg 88%
09:00 +5°C° 0 mm 3 m/S 762 mmHg 84%
10:00 +8°C° 0 mm 3 m/S 762 mmHg 79%
11:00 +8°C° 0 mm 3 m/S 762 mmHg 75%
12:00 +9°C° 0 mm 3 m/S 761 mmHg 71%
13:00 +10°C° 0 mm 3 m/S 761 mmHg 68%
14:00 +9°C° 0 mm 3 m/S 761 mmHg 72%
15:00 +8°C° 0 mm 2 m/S 761 mmHg 77%
16:00 +7°C° 0 mm 2 m/S 761 mmHg 82%
17:00 +7°C° 0 mm 2 m/S 761 mmHg 84%
18:00 +6°C° 0 mm 2 m/S 761 mmHg 86%
19:00 +6°C° 0 mm 2 m/S 761 mmHg 88%
20:00 +5°C° 0 mm 3 m/S 761 mmHg 90%
21:00 +5°C° 0 mm 3 m/S 761 mmHg 91%
22:00 +5°C° 0 mm 3 m/S 761 mmHg 93%
23:00 +4°C° 0 mm 3 m/S 761 mmHg 93%
Mehr zeigen

Wir brauchen deine Erlaubnis

Meteoprog und unser Service Anbieter werden persönliche Daten aufbewahren, so wie Cookies, Geräte Bezeichnung oder ähnliche Technologien von deinem Gerät und Prozess, so wie Persönliche Daten Inhalte und Werbungen, genauso wie social Media und den Verkehr zu analysieren.

  • Aufbewahrung und/oder Zugang zu deiner Geräte Informationen.

    Cookies, Geräte Bezeichnung oder andere Informationen, können aufbewahrt oder Zugang zu deinem Gerät erhalten, für den Grund, der oben angegeben wird.

  • Personalisierte Werbung und Inhalte, Messungen, Einblick in das Publikum und Produkt Entwicklung.

    Werbungen und Inhalte können personalisiert werden, basierend auf ein Profil. Mehr Daten können besser personalisierte Werbungen und Inhalte hinzufügen. Werbung und Inhalte können gezeigt und gemessen werden. Einblicke über das Publikum, welche die Werbung gesehen haben und den Inhalt, können abgeleitet werden. So wie Daten können genutzt werden, um es zu verbessern oder die Benutzer Erfahrung zu verbessern das System und die Software.

Wenn du “Ich stimme zu” klickst, erlaubst du uns, die Cookies zu benutzen die Geräte Bezeichnung, den Web oder ähnliche Technologien zu benutzen. Deine Settings, können in deinem Gerät bei deinem Browser geändert werden.

Für den bestimmten Zweck, berechtigten Interessen beruhen darauf, mehr als auf den Inhalt. Du kannst mehr darüber in unseren Privaten und Cookie Politik lesen.